Datum max min   Außentemperatur Tagesdurchschnitt Außenfeuchte Tagesdurchschnitt Taupunkt Tagesdurchschnitt Windchill Tagesdurchschnitt Windgeschwindigkeit Tagesdurchschnitt   Mindesttemperatur Höchsttemperatur Höchste Windgeschwindigkeit  Tägliche Niederschlagsmenge 
  °C % °C °C km/h   °C °C km/h mm/m²
 
mittelwert
01.01.1970     999,8 -11,9           -14,9 -9,3   0,7
02.01.1970     1000,9 -6,6           -10,2 -5,7   0,6
03.01.1970     998,7 -2,6           -6,0 -1,7   1,3
04.01.1970     999,1 -2,7           -4,4 -0,2   7,4
05.01.1970     988,3 -4,2           -5,1 -2,5   7,5
06.01.1970     1005,1 -6,4           -8,5 -4,3   0,0
07.01.1970     1012,9 -4,7           -8,3 -4,0   0,2
08.01.1970     1021,1 -6,8           -11,6 -4,2   0,0
09.01.1970     1016,5 -6,9           -8,2 -6,6   0,0
10.01.1970     1009,1 -4,8           -6,7 -4,2   0,0
11.01.1970     1003,7 -4,7           -7,2 -1,7   0,0
12.01.1970     996,9 -2,0           -5,5 -0,4   0,0
13.01.1970     1001,8 -3,3           -7,7 1,5   0,0
14.01.1970     1001,9 -3,2           -4,4 -1,4   0,0
15.01.1970     1000,3 -3,1           -7,4 -2,0   1,8
16.01.1970     1005,1 -2,2           -3,1 -1,5   6,2
17.01.1970     1014,9 -8,0           -8,5 -2,4   0,1
18.01.1970     1019,4 -7,3           -8,5 -6,2   0,0
19.01.1970     1021,8 -9,2           -11,9 -6,0   0,0
20.01.1970     1021,5 -9,5           -11,4 -8,2   0,0
21.01.1970     1018,7 -6,7           -9,6 -5,5   0,0
22.01.1970     1016,6 -7,0           -7,6 -6,3   0,2
23.01.1970     1014,2 -5,2           -7,5 -3,9   0,0
24.01.1970     1011,5 -3,5           -6,1 -2,1   0,5
25.01.1970     1013,9 -1,5           -3,8 -0,2   0,0
26.01.1970     1014,9 -0,2           -3,3 0,8   0,2
27.01.1970     1014,1 1,1           0,3 2,6   2,9
28.01.1970     1019,0 -1,2           -2,8 1,2   0,0
29.01.1970     1015,7 -2,1           -3,5 0,1   0,1
30.01.1970     1005,9 -4,6           -6,0 -3,2   0,1
31.01.1970     1015,4 -10,6           -12,5 -4,8   0,2
01.02.1970     1015,0 -11,3           -14,0 -6,0   0,0
02.02.1970     1004,7 -7,0           -16,6 -2,9   13,7
03.02.1970     996,9 1,3           -3,0 4,2   0,6
04.02.1970     999,5 1,2           -0,3 1,7   3,5
05.02.1970     999,0 0,9           0,3 2,2   1,1
06.02.1970     1005,5 -3,6           -7,4 1,2   0,6
07.02.1970     1007,3 -3,0           -12,7 -0,1   3,7
08.02.1970     1002,1 0,3           -1,4 1,1   5,9
09.02.1970     996,3 0,7           -0,3 2,3   2,3
10.02.1970     996,5 -0,9           -2,4 0,7   3,7
11.02.1970     1002,9 -2,6           -4,0 -0,2   1,0
12.02.1970     1000,9 -2,7           -5,6 -1,8   6,3
13.02.1970     997,8 -3,4           -5,0 0,5   2,2
14.02.1970     1004,1 -7,2           -10,5 -3,8   0,1
15.02.1970     1008,2 -11,2           -13,1 -7,7   0,1
16.02.1970     1010,5 -9,2           -16,7 -5,3   0,1
17.02.1970     1009,3 -5,4           -9,5 -4,4   0,8
18.02.1970     1008,5 -4,0           -5,6 -1,0   1,4
19.02.1970     1018,7 -4,7           -6,8 -3,9   1,7
20.02.1970     1008,6 0,5           -3,9 2,0   5,6
21.02.1970     1006,1 0,1           -0,5 0,8   9,4
22.02.1970     1004,2 2,2           -0,4 4,3   23,7
23.02.1970     1003,1 0,7           -0,1 4,3   2,7
24.02.1970     1007,9 0,2           -1,1 3,4   2,1
25.02.1970     1011,8 -2,2           -3,7 2,0   0,0
26.02.1970     1012,9 -3,5           -7,4 -2,4   0,9
27.02.1970     1013,1 -5,8           -6,2 -4,0   2,6
28.02.1970     1017,4 -2,9           -8,0 -5,6   0,3
01.03.1970     1015,4 -6,8           -9,6 -4,7   1,2
02.03.1970     995,7 -6,2           -4,8 -1,7   1,5
03.03.1970     996,7 -3,7           -9,4 -1,7   0,0
04.03.1970     996,6 -2,8           -13,3 -3,0   5,0
05.03.1970     990,5 -5,0           -5,0 -3,0   12,9
06.03.1970     1006,7 -5,4           -4,2 -1,6   0,6
07.03.1970     1011,8 -4,9           -6,6 -1,0   0,0
08.03.1970     1008,2 -2,7           -13,8 -1,1   1,4
09.03.1970     1013,4 -2,6           -8,4 0,2   0,0
10.03.1970     1017,8 -2,1           -6,8 2,8   0,0
11.03.1970     1016,5 0,3           -7,6 1,3   0,0
12.03.1970     1012,2 -2,6           -10,4 3,4   0,0
13.03.1970     1014,5 -4,6           -3,0 5,9   0,0
14.03.1970     1014,1 -0,8           -3,3 -0,5   0,0
15.03.1970     1015,3 0,5           -6,0 -2,2   0,0
16.03.1970     1018,5 1,2           -9,5 1,8   0,2
17.03.1970     1012,3 0,2           -1,0 1,3   0,8
18.03.1970     998,1 0,6           0,4 2,8   4,1
19.03.1970     1004,5 3,7           -1,5 2,0   5,3
20.03.1970     1013,7 3,9           -2,2 1,6   0,3
21.03.1970     1014,7 2,8           1,6 7,4   3,6
22.03.1970     1013,5 4,7           2,4 6,6   0,6
23.03.1970     1014,3 1,2           1,0 5,5   0,2
24.03.1970     1013,1 0,4           1,8 9,8   0,1
25.03.1970     1013,1 -1,5           -1,1 4,2   0,7
26.03.1970     1011,5 -2,0           -5,6 5,8   0,0
27.03.1970     1004,9 -1,0           -3,0 1,6   0,5
28.03.1970     1001,1 3,1           -3,5 -0,3   1,9
29.03.1970     1005,3 3,6           -5,0 1,3   3,1
30.03.1970     1005,7 1,5           -1,0 4,8   0,7
31.03.1970     997,7 -0,6           1,1 6,6   10,7
01.04.1970     1000,3 -2,1           -4,6 4,3   0,7
02.04.1970     1006,2 -1,2           -1,8 2,7   0,0
03.04.1970     1007,9 -1,7           -4,4 1,1   4,5
04.04.1970     1006,5 0,9           -4,4 2,0   4,7
05.04.1970     1005,5 0,4           -4,3 0,6   0,7
06.04.1970     1005,9 1,2           -2,2 3,6   3,5
07.04.1970     1001,7 -0,1           -0,4 2,9   1,1
08.04.1970     1000,7 -0,6           -2,9 3,8   1,5
09.04.1970     997,0 1,0           -0,5 1,6   5,8
10.04.1970     1005,5 2,4           -4,9 1,0   0,7
11.04.1970     1011,4 2,9           -1,2 4,1   0,5
12.04.1970     1011,3 1,8           -0,3 8,4   2,0
13.04.1970     1005,5 4,3           -0,4 6,7   9,7
14.04.1970     1020,6 6,0           0,2 3,6   0,0
15.04.1970     1027,5 10,7           -0,5 9,6   0,0
16.04.1970     1024,5 11,6           0,8 6,7   8,1
17.04.1970     1020,1 9,8           6,5 15,0   0,3
18.04.1970     1015,7 2,7           4,6 17,2   0,0
19.04.1970     1010,5 6,4           3,6 15,0   18,1
20.04.1970     1014,2 8,2           1,8 8,9   1,7
21.04.1970     1019,3 10,2           1,5 9,4   1,5
22.04.1970     1020,1 9,2           5,6 9,6   0,3
23.04.1970     1015,3 8,6           7,5 13,5   1,1
24.04.1970     1015,1 5,9           7,8 12,7   0,9
25.04.1970     1008,7 3,8           6,0 11,3   3,4
26.04.1970     1002,1 3,2           4,7 8,5   3,1
27.04.1970     1008,9 0,7           2,6 8,0   0,8
28.04.1970     1015,7 0,9           0,4 6,7   0,3
29.04.1970     1007,1 1,1           -0,4 3,5   7,9
30.04.1970     1012,7 3,4           -2,0 4,4   7,3
01.05.1970     1019,9 2,1           -0,8 2,4   3,3
02.05.1970     1020,1 5,6           0,4 7,5   0,4
03.05.1970     1019,3 9,4           1,7 6,3   0,5
04.05.1970     1017,3 13,5           5,0 12,4   0,0
05.05.1970     1013,8 13,0           2,5 13,5   0,0
06.05.1970     1010,3 15,0           7,1 18,7   0,0
07.05.1970     1009,3 11,5           7,0 18,4   0,0
08.05.1970     1005,9 15,0           7,2 21,0   0,0
09.05.1970     1010,5 6,6           9,7 16,2   0,0
10.05.1970     1006,1 7,5           6,0 19,2   3,6
11.05.1970     1000,1 9,2           5,2 15,2   6,4
12.05.1970     1000,3 11,2           5,0 8,1   8,0
13.05.1970     1009,1 11,4           8,0 12,3   4,5
14.05.1970     1012,2 10,5           8,1 16,9   0,0
15.05.1970     1008,6 10,4           4,6 18,6   0,3
16.05.1970     1010,1 9,4           7,5 13,0   26,2
17.05.1970     1016,2 12,6           8,7 14,6   3,1
18.05.1970     1025,9 8,1           3,0 14,9   0,0
19.05.1970     1022,6 8,9           2,7 17,2   1,7
20.05.1970     1017,7 6,3           6,8 12,5   0,1
21.05.1970     1008,1 6,2           2,5 13,1   0,0
22.05.1970     1011,0 8,9           3,9 11,3   0,1
23.05.1970     1021,4 13,0           1,4 10,2   0,7
24.05.1970     1027,0 10,4           0,8 14,7   0,0
25.05.1970     1021,4 7,2           1,8 19,2   3,0
26.05.1970     1020,6 7,8           8,4 13,4   8,4
27.05.1970     1017,8 10,3           6,0 10,2   4,8
28.05.1970     1016,6 10,4           6,0 10,0   0,8
29.05.1970     1012,5 9,6           6,0 15,2   2,8
30.05.1970     1012,5 9,5           6,4 13,1   10,8
31.05.1970     1018,6 8,0           7,1 12,4   3,2
01.06.1970     1021,3 8,1           5,8 12,8   1,4
02.06.1970     1025,4 8,9           4,0 12,3   0,0
03.06.1970     1025,8 9,2           3,5 14,0   0,0
04.06.1970     1021,4 10,2           5,0 13,0   2,1
05.06.1970     1016,5 9,9           7,9 11,0   0,3
06.06.1970     1016,1 14,6           10,1 19,5   0,0
07.06.1970     1014,6 17,2           8,2 22,4   0,0
08.06.1970     1013,8 17,6           10,9 22,7   0,0
09.06.1970     1012,6 17,2           12,6 21,3   3,4
10.06.1970     1013,8 16,8           11,5 21,7   0,7
11.06.1970     1016,2 16,2           12,1 21,1   0,5
12.06.1970     1013,9 16,3           10,3 21,7   0,0
13.06.1970     1013,9 12,0           6,4 17,0   0,0
14.06.1970     1013,5 14,4           4,2 20,4   0,0
15.06.1970     1014,7 17,6           7,5 23,4   0,0
16.06.1970     1015,0 17,0           10,4 25,5   8,9
17.06.1970     1015,0 16,0           13,5 20,8   0,1
18.06.1970     1014,5 14,6           8,6 20,6   0,0
19.06.1970     1016,9 17,4           8,6 23,5   0,0
20.06.1970     1021,1 18,8           9,5 24,6   0,0
21.06.1970     1023,4 20,7           10,2 26,5   0,0
22.06.1970     1020,1 20,6           12,5 27,6   0,0
23.06.1970     1017,8 17,0           12,1 26,3   1,5
24.06.1970     1018,7 18,0           13,3 23,3   0,5
25.06.1970     1022,2 16,8           13,1 21,0   0,9
26.06.1970     1021,9 17,8           13,9 24,3   0,0
27.06.1970     1017,9 21,5           12,0 27,6   0,0
28.06.1970     1015,3 18,1           14,3 26,7   12,7
29.06.1970     1015,5 12,6           11,4 16,5   16,3
30.06.1970     1013,1 10,4           7,9 14,2   0,0
01.07.1970     1008,9 11,6           6,0 15,9   3,8
02.07.1970     1008,3 10,7           9,4 14,4   1,8
03.07.1970     1012,5 9,8           8,4 13,0   1,7
04.07.1970     1018,9 10,3           8,8 13,8   1,4
05.07.1970     1021,9 13,0           9,5 17,3   0,1
06.07.1970     1023,0 14,9           11,5 19,6   0,1
07.07.1970     1017,8 18,4           9,1 24,3   0,0
08.07.1970     1012,1 21,5           12,2 27,3   5,0
09.07.1970     1013,5 17,5           14,9 24,2   6,4
10.07.1970     1020,2 16,1           14,0 20,2   0,0
11.07.1970     1020,9 14,5           7,8 19,4   0,0
12.07.1970     1021,7 17,2           9,4 22,5   0,0
13.07.1970     1018,6 19,3           9,6 25,5   0,0
14.07.1970     1007,7 18,8           13,2 23,1   8,5
15.07.1970     1005,9 9,6           7,9 17,3   0,7
16.07.1970     1013,0 9,7           7,3 12,4   4,1
17.07.1970     1018,1 9,1           7,4 12,5   7,2
18.07.1970     1017,4 11,7           7,2 15,3   0,0
19.07.1970     1008,3 14,2           10,6 17,3   2,0
20.07.1970     1002,7 11,5           9,4 15,6   6,0
21.07.1970     1011,8 11,2           6,5 17,9   1,9
22.07.1970     1017,3 13,6           8,7 19,1   0,0
23.07.1970     1018,5 18,7           7,4 24,4   0,0
24.07.1970     1014,3 19,2           14,1 24,5   11,9
25.07.1970     1011,3 11,4           10,3 17,3   16,2
26.07.1970     1013,1 10,5           8,5 11,8   6,2
27.07.1970     1016,1 14,5           9,6 18,2   0,2
28.07.1970     1018,5 19,6           11,0 24,7   8,9
29.07.1970     1016,7 17,8           15,0 23,4   0,0
30.07.1970     1022,6 16,4           11,4 20,5   0,0
31.07.1970     1020,9 17,7           12,7 25,0   20,3
01.08.1970     1021,7 17,0           13,8 20,9   0,0
02.08.1970     1019,4 16,4           14,6 21,0   40,0
03.08.1970     1015,8 14,8           13,3 18,3   1,6
04.08.1970     1015,7 16,9           9,8 22,9   0,0
05.08.1970     1016,9 19,1           11,7 25,6   9,4
06.08.1970     1016,9 20,9           15,6 26,6   0,0
07.08.1970     1015,1 18,6           13,6 27,2   17,6
08.08.1970     1013,0 17,1           15,0 19,6   0,1
09.08.1970     1014,1 15,6           13,9 17,4   1,4
10.08.1970     1015,7 15,2           13,9 19,3   2,2
11.08.1970     1014,7 12,5           11,5 15,4   5,5
12.08.1970     1019,9 12,6           9,8 17,6   0,0
13.08.1970     1018,7 15,2           5,0 21,8   0,0
14.08.1970     1018,1 17,8           7,9 25,1   13,5
15.08.1970     1019,4 13,4           12,2 17,5   0,0
16.08.1970     1011,4 16,5           12,0 21,9   4,0
17.08.1970     1011,0 11,7           9,6 15,6   0,2
18.08.1970     1012,9 12,2           5,9 17,6   0,0
19.08.1970     1011,3 15,1           5,1 22,1   0,0
20.08.1970     1011,8 15,0           10,5 21,0   61,6
21.08.1970     1011,3 11,3           10,8 13,9   35,6
22.08.1970     1012,3 10,9           9,6 12,3   3,1
23.08.1970     1012,5 11,5           9,3 13,4   11,9
24.08.1970     1014,7 11,3           10,8 15,0   0,1
25.08.1970     1020,1 12,3           9,4 19,0   0,1
26.08.1970     1022,2 13,0           5,4 19,8   0,0
27.08.1970     1021,0 14,0           6,8 20,6   0,0
28.08.1970     1016,7 14,8           8,1 21,9   0,0
29.08.1970     1015,3 14,9           7,4 22,0   0,0
30.08.1970     1016,9 15,3           8,2 21,5   0,0
31.08.1970     1017,9 14,9           7,9 23,0   0,0
01.09.1970     1015,7 14,4           11,0 18,2   0,7
02.09.1970     1016,9 11,8           7,5 18,0   0,0
03.09.1970     1014,6 13,8           8,5 16,0   7,5
04.09.1970     1018,1 13,2           11,0 16,1   0,0
05.09.1970     1015,8 13,6           12,1 17,8   0,0
06.09.1970     1017,8 11,4           9,2 15,4   0,0
07.09.1970     1019,1 10,2           4,4 17,1   0,0
08.09.1970     1011,1 15,5           7,0 22,6   1,5
09.09.1970     1011,3 16,0           13,6 21,0   0,0
10.09.1970     1009,4 20,0           12,7 26,5   0,0
11.09.1970     1010,9 12,7           9,9 22,8   3,0
12.09.1970     1012,1 11,6           6,5 15,4   0,4
13.09.1970     1011,7 9,8           8,0 13,6   0,0
14.09.1970     1012,7 13,6           7,2 17,4   0,0
15.09.1970     1013,1 16,3           9,4 24,0   0,3
16.09.1970     1016,7 10,4           8,7 14,6   0,0
17.09.1970     1026,6 10,1           6,0 14,0   0,0
18.09.1970     1026,6 13,0           8,6 19,2   0,0
19.09.1970     1024,9 14,6           6,1 21,7   0,0
20.09.1970     1023,8 15,4           10,0 20,8   0,0
21.09.1970     1022,6 13,5           11,4 18,3   0,8
22.09.1970     1023,9 7,9           5,3 13,1   0,0
23.09.1970     1023,0 5,0           -1,4 11,9   0,0
24.09.1970     1022,9 5,4           -2,5 12,6   0,0
25.09.1970     1020,2 11,3           0,8 16,4   0,0
26.09.1970     1021,9 8,4           5,3 11,7   5,3
27.09.1970     1026,5 8,2           -0,5 15,7   0,0
28.09.1970     1031,0 7,2           -0,1 15,7   0,0
29.09.1970     1026,7 7,4           0,0 16,8   0,0
30.09.1970     1014,2 8,7           1,0 12,5   7,9
01.10.1970     1008,7 7,9           6,7 10,0   8,4
02.10.1970     1001,1 7,5           5,4 11,0   12,9
03.10.1970     1002,6 5,7           3,9 7,3   14,1
04.10.1970     1013,0 6,6           5,3 7,1   6,4
05.10.1970     1012,6 10,2           5,7 12,0   0,1
06.10.1970     1010,1 12,4           9,8 18,3   0,0
07.10.1970     1009,4 11,0           6,1 16,2   0,0
08.10.1970     1015,4 12,2           7,6 17,6   0,1
09.10.1970     1020,3 11,7           10,8 12,9   0,0
10.10.1970     1023,8 11,0           10,4 17,0   0,2
11.10.1970     1027,7 11,2           6,6 18,6   0,0
12.10.1970     1027,7 11,3           6,6 15,1   0,0
13.10.1970     1024,2 10,2           7,9 11,5   0,0
14.10.1970     1024,1 6,4           6,1 10,2   0,1
15.10.1970     1026,6 1,3           -0,4 6,2   0,0
16.10.1970     1028,9 4,6           -2,0 8,5   0,0
17.10.1970     1025,0 5,0           1,0 10,9   0,0
18.10.1970     1020,5 6,2           -1,0 11,0   0,0
19.10.1970     1006,2 5,8           3,5 11,4   4,0
20.10.1970     998,3 3,4           2,2 5,0   4,6
21.10.1970     1003,3 2,6           0,8 4,3   6,8
22.10.1970     1013,7 3,0           0,6 6,2   11,1
23.10.1970     1019,5 0,2           -0,2 1,5   3,3
24.10.1970     1025,4 1,4           -0,5 2,6   10,5
25.10.1970     1020,6 6,0           1,5 6,7   0,2
26.10.1970     1016,9 6,4           5,4 7,1   3,3
27.10.1970     1023,4 4,0           2,4 7,3   0,0
28.10.1970     1019,5 7,3           1,2 8,7   3,7
29.10.1970     1022,2 7,5           5,8 9,0   2,7
30.10.1970     1019,0 9,0           7,0 10,3   0,0
31.10.1970     1017,0 8,1           6,7 9,6   0,8
01.11.1970     1015,5 9,2           8,4 11,3   0,2
02.11.1970     1015,8 9,6           8,1 10,5   8,4
03.11.1970     1010,3 10,0           8,8 14,1   1,6
04.11.1970     1018,5 6,5           5,9 8,8   2,3
05.11.1970     1012,3 5,3           4,1 6,6   5,0
06.11.1970     1016,7 2,4           1,7 4,9   7,3
07.11.1970     1016,2 1,5           0,2 4,4   0,1
08.11.1970     1017,9 -0,4           -3,4 1,3   0,6
09.11.1970     1006,9 3,9           1,1 4,7   4,4
10.11.1970     1013,3 2,8           1,5 4,2   0,8
11.11.1970     1014,1 5,0           1,8 6,9   1,6
12.11.1970     1009,0 8,8           6,3 11,3   0,1
13.11.1970     1009,1 4,0           1,1 9,3   2,2
14.11.1970     1000,7 2,7           0,9 3,6   5,2
15.11.1970     1000,3 2,6           0,3 4,7   0,0
16.11.1970     1006,6 1,7           0,3 4,1   0,1
17.11.1970     1006,7 0,8           -1,6 1,2   0,7
18.11.1970     1003,3 7,6           1,1 9,0   7,3
19.11.1970     1000,7 2,6           5,9 8,8   1,7
20.11.1970     1009,7 4,9           3,0 8,4   0,0
21.11.1970     1007,3 3,6           1,4 5,0   9,4
22.11.1970     1012,2 4,0           3,0 4,2   0,6
23.11.1970     1022,2 0,9           -1,8 5,1   0,2
24.11.1970     1020,5 0,3           -2,4 4,4   0,3
25.11.1970     1022,2 -0,9           -2,1 1,8   0,0
26.11.1970     1028,2 -0,1           -2,6 4,5   0,0
27.11.1970     1027,1 2,4           -1,6 4,4   0,3
28.11.1970     1017,8 -0,2           -1,5 3,4   0,0
29.11.1970     1008,1 5,1           -2,1 9,5   2,7
30.11.1970     1008,2 6,4           3,4 7,5   5,2
01.12.1970     1009,0 4,6           4,0 6,0   7,4
02.12.1970     1014,7 3,2           2,4 4,2   3,3
03.12.1970     1007,3 3,1           1,5 5,9   16,7
04.12.1970     1020,9 0,4           -1,8 2,3   3,5
05.12.1970     1019,7 4,0           1,0 6,1   5,6
06.12.1970     1020,5 2,1           1,0 3,1   0,3
07.12.1970     1019,0 1,5           0,5 2,5   0,3
08.12.1970     1032,1 0,4           -1,4 2,3   0,1
09.12.1970     1034,2 0,6           -2,9 1,3   0,0
10.12.1970     1033,0 2,2           1,0 2,6   0,0
11.12.1970     1030,6 0,0           -1,4 2,6   0,0
12.12.1970     1027,1 -1,7           -3,1 1,5   0,0
13.12.1970     1025,8 -0,7           -2,8 2,0   0,1
14.12.1970     1024,1 0,0           -3,0 0,3   0,9
15.12.1970     1027,7 0,2           -0,8 0,4   0,5
16.12.1970     1030,6 -0,6           -1,0 0,3   0,4
17.12.1970     1025,4 -2,6           -3,3 -1,0   0,1
18.12.1970     1022,6 -1,1           -3,1 -0,8   0,0
19.12.1970     1023,5 -0,8           -1,3 -0,6   0,0
20.12.1970     1022,9 -0,5           -1,0 0,0   0,2
21.12.1970     1017,3 -1,6           -3,1 0,7   1,6
22.12.1970     1018,5 -4,6           -7,4 -2,3   0,1
23.12.1970     1016,5 -6,5           -9,5 -4,7   0,9
24.12.1970     1014,7 -5,8           -6,5 -5,4   0,5
25.12.1970     1014,5 -7,0           -7,4 -5,8   0,8
26.12.1970     1013,3 -8,8           -9,5 -7,2   0,0
27.12.1970     1011,1 -10,4           -14,1 -7,9   0,1
28.12.1970     997,4 -4,8           -11,5 -3,3   1,5
29.12.1970     1001,7 -6,3           -9,8 -2,2   0,1
30.12.1970     992,9 -6,2           -8,5 -6,0   14,5
31.12.1970     1003,9 -9,0           -12,8 -5,0   0,0